Time,TemperatureF,DewpointF,PressureIn,WindDirection,WindDirectionDegrees,WindSpeedMPH,WindSpeedGustMPH,Humidity,HourlyPrecipIn,Conditions,Clouds,dailyrainin,SoftwareType,DateUTC
2013-08-10 00:00:00,65.7,60.1,30.02,NW,315,4.0,4.0,82,0.00,,,0.00,meteohub,2013-08-10 05:00:00,
2013-08-10 00:06:00,65.5,59.9,30.03,NW,315,2.0,4.0,82,0.00,,,0.00,meteohub,2013-08-10 05:06:00,
2013-08-10 00:11:00,65.1,59.9,30.03,NW,315,3.0,4.0,83,0.00,,,0.00,meteohub,2013-08-10 05:11:00,
2013-08-10 00:16:00,64.9,59.7,30.03,NW,315,2.0,4.0,83,0.00,,,0.00,meteohub,2013-08-10 05:16:00,
2013-08-10 00:21:00,64.9,59.9,30.03,NW,315,2.0,3.0,84,0.00,,,0.00,meteohub,2013-08-10 05:21:00,
2013-08-10 00:26:00,64.8,60.1,30.03,NE,45,3.0,3.0,85,0.00,,,0.00,meteohub,2013-08-10 05:26:00,
2013-08-10 00:31:00,64.6,59.9,30.03,NW,315,7.0,8.0,85,0.00,,,0.00,meteohub,2013-08-10 05:31:00,
2013-08-10 00:36:00,64.4,59.7,30.04,NW,315,4.0,8.0,85,0.00,,,0.00,meteohub,2013-08-10 05:36:00,
2013-08-10 00:41:00,64.2,59.4,30.04,NW,315,4.0,8.0,84,0.00,,,0.00,meteohub,2013-08-10 05:41:00,
2013-08-10 00:46:00,64.2,59.4,30.04,NW,315,2.0,8.0,84,0.00,,,0.00,meteohub,2013-08-10 05:46:00,
2013-08-10 00:51:00,63.9,59.2,30.04,NW,315,4.0,6.0,85,0.00,,,0.00,meteohub,2013-08-10 05:51:00,
2013-08-10 00:56:00,63.7,59.0,30.04,NE,45,2.0,6.0,85,0.00,,,0.00,meteohub,2013-08-10 05:56:00,
2013-08-10 01:01:00,63.7,59.4,30.04,North,0,3.0,4.0,86,0.00,,,0.00,meteohub,2013-08-10 06:01:00,
2013-08-10 01:06:00,63.7,59.4,30.04,North,0,3.0,4.0,86,0.00,,,0.00,meteohub,2013-08-10 06:06:00,
2013-08-10 01:11:00,63.5,59.2,30.04,NW,315,3.0,4.0,86,0.00,,,0.00,meteohub,2013-08-10 06:11:00,
2013-08-10 01:16:00,63.3,59.4,30.04,North,0,2.0,4.0,87,0.00,,,0.00,meteohub,2013-08-10 06:16:00,
2013-08-10 01:21:00,63.1,59.2,30.04,NW,315,2.0,4.0,87,0.00,,,0.00,meteohub,2013-08-10 06:21:00,
2013-08-10 01:26:00,63.0,59.0,30.04,NW,315,4.0,4.0,87,0.00,,,0.00,meteohub,2013-08-10 06:26:00,
2013-08-10 01:31:00,63.0,59.0,30.04,NW,315,4.0,4.0,87,0.00,,,0.00,meteohub,2013-08-10 06:31:00,
2013-08-10 01:36:00,62.8,59.2,30.04,NW,315,4.0,5.0,88,0.00,,,0.00,meteohub,2013-08-10 06:36:00,
2013-08-10 01:41:00,62.6,59.0,30.04,North,0,4.0,5.0,88,0.00,,,0.00,meteohub,2013-08-10 06:41:00,
2013-08-10 01:46:00,62.2,59.2,30.04,NW,315,4.0,4.0,90,0.00,,,0.00,meteohub,2013-08-10 06:46:00,
2013-08-10 01:52:00,62.1,59.2,30.04,North,0,2.0,4.0,90,0.00,,,0.00,meteohub,2013-08-10 06:52:00,
2013-08-10 01:57:00,61.7,59.0,30.05,NW,315,2.0,4.0,91,0.00,,,0.00,meteohub,2013-08-10 06:57:00,
2013-08-10 02:02:00,61.7,59.4,30.05,NW,315,4.0,4.0,92,0.00,,,0.00,meteohub,2013-08-10 07:02:00,
2013-08-10 02:07:00,61.7,59.4,30.04,WNW,293,4.0,4.0,92,0.00,,,0.00,meteohub,2013-08-10 07:07:00,
2013-08-10 02:12:00,61.7,59.4,30.04,North,0,4.0,5.0,92,0.00,,,0.00,meteohub,2013-08-10 07:12:00,
2013-08-10 02:17:00,61.5,59.2,30.04,NW,315,3.0,5.0,92,0.00,,,0.00,meteohub,2013-08-10 07:17:00,
2013-08-10 02:22:00,61.5,59.2,30.05,North,0,4.0,5.0,92,0.00,,,0.00,meteohub,2013-08-10 07:22:00,
2013-08-10 02:27:00,61.5,59.2,30.05,NW,315,4.0,4.0,92,0.00,,,0.00,meteohub,2013-08-10 07:27:00,
2013-08-10 02:32:00,61.5,59.2,30.05,NW,315,2.0,5.0,92,0.00,,,0.00,meteohub,2013-08-10 07:32:00,
2013-08-10 02:37:00,61.3,59.0,30.05,NW,315,3.0,5.0,92,0.00,,,0.00,meteohub,2013-08-10 07:37:00,
2013-08-10 02:42:00,61.2,58.8,30.05,NW,315,2.0,4.0,92,0.00,,,0.00,meteohub,2013-08-10 07:42:00,
2013-08-10 02:47:00,61.2,58.8,30.05,NW,315,4.0,5.0,92,0.00,,,0.00,meteohub,2013-08-10 07:47:00,
2013-08-10 02:52:00,61.2,58.8,30.05,NW,315,4.0,5.0,92,0.00,,,0.00,meteohub,2013-08-10 07:52:00,
2013-08-10 02:57:00,61.2,58.8,30.05,NW,315,4.0,5.0,92,0.00,,,0.00,meteohub,2013-08-10 07:57:00,
2013-08-10 03:02:00,61.2,58.8,30.05,NW,315,4.0,4.0,92,0.00,,,0.00,meteohub,2013-08-10 08:02:00,
2013-08-10 03:07:00,61.2,58.8,30.05,NW,315,4.0,4.0,92,0.00,,,0.00,meteohub,2013-08-10 08:07:00,
2013-08-10 03:12:00,61.0,58.6,30.05,NW,315,4.0,5.0,92,0.00,,,0.00,meteohub,2013-08-10 08:12:00,
2013-08-10 03:17:00,61.0,58.6,30.05,North,0,4.0,6.0,92,0.00,,,0.00,meteohub,2013-08-10 08:17:00,
2013-08-10 03:22:00,61.0,58.6,30.05,NW,315,5.0,6.0,92,0.00,,,0.00,meteohub,2013-08-10 08:22:00,
2013-08-10 03:27:00,61.0,58.6,30.05,North,0,4.0,6.0,92,0.00,,,0.00,meteohub,2013-08-10 08:27:00,
2013-08-10 03:32:00,60.8,58.5,30.06,NW,315,4.0,6.0,92,0.00,,,0.00,meteohub,2013-08-10 08:32:00,
2013-08-10 03:37:00,60.8,58.5,30.06,NW,315,5.0,6.0,92,0.00,,,0.00,meteohub,2013-08-10 08:37:00,
2013-08-10 03:42:00,60.6,58.6,30.06,NW,315,4.0,7.0,93,0.00,,,0.00,meteohub,2013-08-10 08:42:00,
2013-08-10 03:47:00,60.4,58.5,30.06,NW,315,5.0,7.0,93,0.00,,,0.00,meteohub,2013-08-10 08:47:00,
2013-08-10 03:52:00,60.3,58.5,30.06,NW,315,6.0,7.0,94,0.00,,,0.00,meteohub,2013-08-10 08:52:00,
2013-08-10 03:57:00,60.1,58.3,30.06,NW,315,6.0,7.0,94,0.00,,,0.00,meteohub,2013-08-10 08:57:00,
2013-08-10 04:02:00,59.9,58.1,30.06,North,0,5.0,8.0,94,0.00,,,0.00,meteohub,2013-08-10 09:02:00,
2013-08-10 04:07:00,59.5,58.1,30.06,NW,315,7.0,8.0,95,0.00,,,0.00,meteohub,2013-08-10 09:07:00,
2013-08-10 04:12:00,59.5,58.1,30.06,North,0,7.0,8.0,95,0.00,,,0.00,meteohub,2013-08-10 09:12:00,
2013-08-10 04:17:00,59.4,57.9,30.06,North,0,6.0,8.0,95,0.00,,,0.00,meteohub,2013-08-10 09:17:00,
2013-08-10 04:22:00,59.2,58.1,30.07,North,0,7.0,7.0,96,0.00,,,0.00,meteohub,2013-08-10 09:22:00,
2013-08-10 04:27:00,59.2,58.1,30.07,North,0,6.0,7.0,96,0.00,,,0.00,meteohub,2013-08-10 09:27:00,
2013-08-10 04:32:00,59.0,57.9,30.07,NW,315,6.0,7.0,96,0.00,,,0.00,meteohub,2013-08-10 09:32:00,
2013-08-10 04:37:00,59.0,57.9,30.07,NW,315,6.0,7.0,96,0.00,,,0.00,meteohub,2013-08-10 09:37:00,
2013-08-10 04:42:00,58.8,57.9,30.07,NW,315,6.0,7.0,97,0.00,,,0.00,meteohub,2013-08-10 09:42:00,
2013-08-10 04:47:00,58.8,57.9,30.07,NW,315,7.0,7.0,97,0.00,,,0.00,meteohub,2013-08-10 09:47:00,
2013-08-10 04:52:00,58.8,57.9,30.07,North,0,6.0,8.0,97,0.00,,,0.00,meteohub,2013-08-10 09:52:00,
2013-08-10 04:57:00,58.8,57.9,30.07,NW,315,5.0,8.0,97,0.00,,,0.00,meteohub,2013-08-10 09:57:00,
2013-08-10 05:02:00,58.8,57.9,30.07,North,0,4.0,8.0,97,0.00,,,0.00,meteohub,2013-08-10 10:02:00,
2013-08-10 05:07:00,58.8,57.9,30.07,North,0,4.0,8.0,97,0.00,,,0.00,meteohub,2013-08-10 10:07:00,
2013-08-10 05:12:00,58.6,57.7,30.07,North,0,4.0,8.0,97,0.00,,,0.00,meteohub,2013-08-10 10:12:00,
2013-08-10 05:17:00,58.5,57.6,30.07,NW,315,7.0,7.0,97,0.00,,,0.00,meteohub,2013-08-10 10:17:00,
2013-08-10 05:22:00,58.5,57.6,30.07,NW,315,7.0,7.0,97,0.00,,,0.00,meteohub,2013-08-10 10:22:00,
2013-08-10 05:27:00,58.3,57.2,30.07,North,0,7.0,7.0,96,0.00,,,0.00,meteohub,2013-08-10 10:27:00,
2013-08-10 05:32:00,58.3,57.2,30.07,North,0,6.0,7.0,96,0.00,,,0.00,meteohub,2013-08-10 10:32:00,
2013-08-10 05:37:00,58.3,57.2,30.07,NW,315,8.0,8.0,96,0.00,,,0.00,meteohub,2013-08-10 10:37:00,
2013-08-10 05:42:00,58.3,57.2,30.07,NW,315,5.0,8.0,96,0.00,,,0.00,meteohub,2013-08-10 10:42:00,
2013-08-10 05:47:00,58.1,57.0,30.08,North,0,6.0,8.0,96,0.00,,,0.00,meteohub,2013-08-10 10:47:00,
2013-08-10 05:52:00,58.1,57.0,30.08,West,270,5.0,8.0,96,0.00,,,0.00,meteohub,2013-08-10 10:52:00,
2013-08-10 05:57:00,57.9,56.8,30.08,NW,315,5.0,7.0,96,0.00,,,0.00,meteohub,2013-08-10 10:57:00,
2013-08-10 06:02:00,57.7,56.7,30.08,North,0,6.0,7.0,96,0.00,,,0.00,meteohub,2013-08-10 11:02:00,
2013-08-10 06:07:00,57.6,56.5,30.08,NW,315,6.0,7.0,96,0.00,,,0.00,meteohub,2013-08-10 11:07:00,
2013-08-10 06:12:00,57.6,56.5,30.08,WNW,293,6.0,7.0,96,0.00,,,0.00,meteohub,2013-08-10 11:12:00,
2013-08-10 06:17:00,57.6,56.7,30.08,NW,315,5.0,7.0,97,0.00,,,0.00,meteohub,2013-08-10 11:17:00,
2013-08-10 06:22:00,57.7,56.8,30.08,NW,315,6.0,6.0,97,0.00,,,0.00,meteohub,2013-08-10 11:22:00,
2013-08-10 06:27:00,57.9,56.8,30.08,NW,315,4.0,6.0,96,0.00,,,0.00,meteohub,2013-08-10 11:27:00,
2013-08-10 06:32:00,57.9,56.8,30.08,NW,315,5.0,7.0,96,0.00,,,0.00,meteohub,2013-08-10 11:32:00,
2013-08-10 06:37:00,58.3,57.2,30.08,NW,315,5.0,7.0,96,0.00,,,0.00,meteohub,2013-08-10 11:37:00,
2013-08-10 06:42:00,58.5,57.0,30.08,NW,315,6.0,7.0,95,0.00,,,0.00,meteohub,2013-08-10 11:42:00,
2013-08-10 06:47:00,58.6,57.2,30.08,North,0,6.0,6.0,95,0.00,,,0.00,meteohub,2013-08-10 11:47:00,
2013-08-10 06:52:00,58.8,57.0,30.08,NW,315,5.0,6.0,94,0.00,,,0.00,meteohub,2013-08-10 11:52:00,
2013-08-10 06:57:00,59.0,57.0,30.08,North,0,5.0,9.0,93,0.00,,,0.00,meteohub,2013-08-10 11:57:00,
2013-08-10 07:02:00,59.0,56.7,30.08,NW,315,6.0,9.0,92,0.00,,,0.00,meteohub,2013-08-10 12:02:00,
2013-08-10 07:07:00,58.8,56.8,30.08,NW,315,8.0,9.0,93,0.00,,,0.00,meteohub,2013-08-10 12:07:00,
2013-08-10 07:12:00,58.8,56.8,30.08,NW,315,6.0,8.0,93,0.00,,,0.00,meteohub,2013-08-10 12:12:00,
2013-08-10 07:17:00,59.0,56.7,30.08,NW,315,4.0,8.0,92,0.00,,,0.00,meteohub,2013-08-10 12:17:00,
2013-08-10 07:22:00,59.0,56.7,30.08,North,0,5.0,8.0,92,0.00,,,0.00,meteohub,2013-08-10 12:22:00,
2013-08-10 07:27:00,59.4,56.7,30.08,NW,315,6.0,7.0,91,0.00,,,0.00,meteohub,2013-08-10 12:27:00,
2013-08-10 07:32:00,59.5,56.8,30.08,NW,315,6.0,7.0,91,0.00,,,0.00,meteohub,2013-08-10 12:32:00,
2013-08-10 07:37:00,59.7,56.8,30.08,NW,315,5.0,8.0,90,0.00,,,0.00,meteohub,2013-08-10 12:37:00,
2013-08-10 07:42:00,60.1,57.2,30.08,North,0,5.0,8.0,90,0.00,,,0.00,meteohub,2013-08-10 12:42:00,
2013-08-10 07:47:00,60.4,57.2,30.08,NW,315,4.0,8.0,89,0.00,,,0.00,meteohub,2013-08-10 12:47:00,
2013-08-10 07:52:00,61.2,57.2,30.09,NW,315,4.0,7.0,87,0.00,,,0.00,meteohub,2013-08-10 12:52:00,
2013-08-10 07:57:00,61.9,57.9,30.08,West,270,4.0,6.0,87,0.00,,,0.00,meteohub,2013-08-10 12:57:00,
2013-08-10 08:02:00,62.4,58.1,30.08,NW,315,2.0,6.0,86,0.00,,,0.00,meteohub,2013-08-10 13:02:00,
2013-08-10 08:07:00,63.1,58.3,30.08,NW,315,1.0,4.0,84,0.00,,,0.00,meteohub,2013-08-10 13:07:00,
2013-08-10 08:12:00,63.9,59.0,30.08,West,270,2.0,4.0,84,0.00,,,0.00,meteohub,2013-08-10 13:12:00,
2013-08-10 08:17:00,64.4,59.2,30.08,NW,315,1.0,4.0,83,0.00,,,0.00,meteohub,2013-08-10 13:17:00,
2013-08-10 08:22:00,64.9,59.4,30.08,NW,315,1.0,4.0,82,0.00,,,0.00,meteohub,2013-08-10 13:22:00,
2013-08-10 08:27:00,65.7,59.7,30.08,North,0,0.0,4.0,81,0.00,,,0.00,meteohub,2013-08-10 13:27:00,
2013-08-10 08:32:00,66.2,59.9,30.08,NW,315,2.0,3.0,80,0.00,,,0.00,meteohub,2013-08-10 13:32:00,
2013-08-10 08:37:00,66.9,60.3,30.08,NW,315,4.0,4.0,79,0.00,,,0.00,meteohub,2013-08-10 13:37:00,
2013-08-10 08:42:00,66.4,59.0,30.09,North,0,3.0,7.0,77,0.00,,,0.00,meteohub,2013-08-10 13:42:00,
2013-08-10 08:47:00,66.0,59.4,30.09,NW,315,5.0,10.0,79,0.00,,,0.00,meteohub,2013-08-10 13:47:00,
2013-08-10 08:52:00,66.0,59.4,30.09,NW,315,6.0,10.0,79,0.00,,,0.00,meteohub,2013-08-10 13:52:00,
2013-08-10 08:57:00,66.7,60.4,30.09,NW,315,2.0,8.0,80,0.00,,,0.00,meteohub,2013-08-10 13:57:00,
2013-08-10 09:02:00,67.5,61.2,30.09,North,0,4.0,6.0,80,0.00,,,0.00,meteohub,2013-08-10 14:02:00,
2013-08-10 09:07:00,68.2,61.0,30.09,North,0,3.0,6.0,78,0.00,,,0.00,meteohub,2013-08-10 14:07:00,
2013-08-10 09:12:00,68.7,60.8,30.09,NW,315,4.0,5.0,76,0.00,,,0.00,meteohub,2013-08-10 14:12:00,
2013-08-10 09:17:00,69.3,60.6,30.09,NW,315,4.0,4.0,74,0.00,,,0.00,meteohub,2013-08-10 14:17:00,
2013-08-10 09:22:00,69.8,60.4,30.09,NW,315,6.0,6.0,72,0.00,,,0.00,meteohub,2013-08-10 14:22:00,
2013-08-10 09:27:00,70.2,58.3,30.09,North,0,2.0,6.0,66,0.00,,,0.00,meteohub,2013-08-10 14:27:00,
2013-08-10 09:32:00,70.9,59.0,30.09,East,90,2.0,6.0,66,0.00,,,0.00,meteohub,2013-08-10 14:32:00,
2013-08-10 09:37:00,71.6,59.2,30.08,North,0,3.0,6.0,65,0.00,,,0.00,meteohub,2013-08-10 14:37:00,
2013-08-10 09:42:00,72.1,58.8,30.09,NE,45,4.0,4.0,63,0.00,,,0.00,meteohub,2013-08-10 14:42:00,
2013-08-10 09:47:00,72.3,59.0,30.08,NW,315,3.0,4.0,63,0.00,,,0.00,meteohub,2013-08-10 14:47:00,
2013-08-10 09:52:00,72.9,59.0,30.08,NE,45,4.0,4.0,62,0.00,,,0.00,meteohub,2013-08-10 14:52:00,
2013-08-10 09:57:00,72.9,56.7,30.09,West,270,2.0,5.0,57,0.00,,,0.00,meteohub,2013-08-10 14:57:00,
2013-08-10 10:02:00,73.6,58.3,30.09,NW,315,4.0,5.0,59,0.00,,,0.00,meteohub,2013-08-10 15:02:00,
2013-08-10 10:07:00,73.4,56.7,30.09,West,270,4.0,5.0,56,0.00,,,0.00,meteohub,2013-08-10 15:07:00,
2013-08-10 10:12:00,73.8,57.0,30.09,West,270,2.0,5.0,56,0.00,,,0.00,meteohub,2013-08-10 15:12:00,
2013-08-10 10:17:00,73.8,56.7,30.09,NW,315,8.0,8.0,55,0.00,,,0.00,meteohub,2013-08-10 15:17:00,
2013-08-10 10:22:00,73.8,57.6,30.09,NW,315,6.0,9.0,57,0.00,,,0.00,meteohub,2013-08-10 15:22:00,
2013-08-10 10:27:00,73.9,57.2,30.09,North,0,4.0,9.0,56,0.00,,,0.00,meteohub,2013-08-10 15:27:00,
2013-08-10 10:32:00,74.1,57.4,30.09,NW,315,6.0,9.0,56,0.00,,,0.00,meteohub,2013-08-10 15:32:00,
2013-08-10 10:37:00,74.3,55.6,30.09,North,0,7.0,9.0,52,0.00,,,0.00,meteohub,2013-08-10 15:37:00,
2013-08-10 10:43:00,74.5,56.7,30.10,NW,315,7.0,9.0,54,0.00,,,0.00,meteohub,2013-08-10 15:43:00,
2013-08-10 10:48:00,74.1,55.9,30.10,NW,315,7.0,9.0,53,0.00,,,0.00,meteohub,2013-08-10 15:48:00,
2013-08-10 10:53:00,73.9,55.2,30.10,West,270,6.0,11.0,52,0.00,,,0.00,meteohub,2013-08-10 15:53:00,
2013-08-10 10:58:00,73.8,56.1,30.10,West,270,7.0,16.0,54,0.00,,,0.00,meteohub,2013-08-10 15:58:00,
2013-08-10 11:03:00,74.1,56.8,30.10,NW,315,4.0,16.0,55,0.00,,,0.00,meteohub,2013-08-10 16:03:00,
2013-08-10 11:08:00,74.3,59.0,30.10,NW,315,9.0,16.0,59,0.00,,,0.00,meteohub,2013-08-10 16:08:00,
2013-08-10 11:13:00,74.7,58.8,30.10,North,0,12.0,12.0,58,0.00,,,0.00,meteohub,2013-08-10 16:13:00,
2013-08-10 11:18:00,74.5,57.7,30.10,NW,315,8.0,12.0,56,0.00,,,0.00,meteohub,2013-08-10 16:18:00,
2013-08-10 11:23:00,74.7,57.9,30.10,NW,315,10.0,13.0,56,0.00,,,0.00,meteohub,2013-08-10 16:23:00,
2013-08-10 11:28:00,74.8,58.1,30.10,North,0,9.0,13.0,56,0.00,,,0.00,meteohub,2013-08-10 16:28:00,
2013-08-10 11:33:00,74.7,57.4,30.10,NW,315,15.0,15.0,55,0.00,,,0.00,meteohub,2013-08-10 16:33:00,
2013-08-10 11:38:00,74.7,56.5,30.10,NE,45,6.0,15.0,53,0.00,,,0.00,meteohub,2013-08-10 16:38:00,
2013-08-10 11:43:00,74.8,56.1,30.10,North,0,9.0,15.0,52,0.00,,,0.00,meteohub,2013-08-10 16:43:00,
2013-08-10 11:48:00,74.3,54.5,30.10,NW,315,5.0,15.0,50,0.00,,,0.00,meteohub,2013-08-10 16:48:00,
2013-08-10 11:53:00,74.5,55.2,30.10,NW,315,6.0,12.0,51,0.00,,,0.00,meteohub,2013-08-10 16:53:00,
2013-08-10 11:58:00,74.8,55.6,30.10,North,0,6.0,12.0,51,0.00,,,0.00,meteohub,2013-08-10 16:58:00,
2013-08-10 12:03:00,75.0,55.6,30.09,West,270,11.0,11.0,51,0.00,,,0.00,meteohub,2013-08-10 17:03:00,
2013-08-10 12:08:00,75.2,54.7,30.10,NW,315,3.0,11.0,49,0.00,,,0.00,meteohub,2013-08-10 17:08:00,
2013-08-10 12:13:00,75.9,55.4,30.09,NW,315,6.0,14.0,49,0.00,,,0.00,meteohub,2013-08-10 17:13:00,
2013-08-10 12:18:00,75.4,54.9,30.09,NE,45,8.0,14.0,49,0.00,,,0.00,meteohub,2013-08-10 17:18:00,
2013-08-10 12:24:00,75.4,55.4,30.09,WNW,293,4.0,10.0,50,0.00,,,0.00,meteohub,2013-08-10 17:24:00,
2013-08-10 12:29:00,76.1,57.2,30.09,West,270,5.0,11.0,52,0.00,,,0.00,meteohub,2013-08-10 17:29:00,
2013-08-10 12:34:00,75.7,55.8,30.09,NW,315,5.0,11.0,50,0.00,,,0.00,meteohub,2013-08-10 17:34:00,
2013-08-10 12:39:00,75.2,56.3,30.09,West,270,8.0,11.0,52,0.00,,,0.00,meteohub,2013-08-10 17:39:00,
2013-08-10 12:44:00,75.2,54.7,30.09,North,0,3.0,9.0,49,0.00,,,0.00,meteohub,2013-08-10 17:44:00,
2013-08-10 12:49:00,75.6,55.6,30.09,West,270,14.0,14.0,50,0.00,,,0.00,meteohub,2013-08-10 17:49:00,
2013-08-10 12:54:00,75.4,55.4,30.09,North,0,6.0,11.0,50,0.00,,,0.00,meteohub,2013-08-10 17:54:00,
2013-08-10 12:59:00,75.4,57.0,30.09,NW,315,4.0,14.0,53,0.00,,,0.00,meteohub,2013-08-10 17:59:00,
2013-08-10 13:04:00,75.6,56.7,30.09,North,0,5.0,14.0,52,0.00,,,0.00,meteohub,2013-08-10 18:04:00,
2013-08-10 13:09:00,75.7,56.8,30.09,NW,315,10.0,11.0,52,0.00,,,0.00,meteohub,2013-08-10 18:09:00,
2013-08-10 13:14:00,74.8,55.6,30.09,NE,45,4.0,11.0,51,0.00,,,0.00,meteohub,2013-08-10 18:14:00,
2013-08-10 13:19:00,74.3,56.1,30.09,NW,315,8.0,11.0,53,0.00,,,0.00,meteohub,2013-08-10 18:19:00,
2013-08-10 13:24:00,73.6,55.4,30.09,NW,315,10.0,11.0,53,0.00,,,0.00,meteohub,2013-08-10 18:24:00,
2013-08-10 13:29:00,73.6,56.5,30.09,NW,315,6.0,11.0,55,0.00,,,0.00,meteohub,2013-08-10 18:29:00,
2013-08-10 13:34:00,75.4,58.6,30.09,NW,315,8.0,15.0,56,0.00,,,0.00,meteohub,2013-08-10 18:34:00,
2013-08-10 13:39:00,76.3,57.9,30.09,NW,315,12.0,15.0,53,0.00,,,0.00,meteohub,2013-08-10 18:39:00,
2013-08-10 13:44:00,76.3,56.8,30.09,NW,315,7.0,15.0,51,0.00,,,0.00,meteohub,2013-08-10 18:44:00,
2013-08-10 13:49:00,76.5,57.0,30.08,West,270,11.0,12.0,51,0.00,,,0.00,meteohub,2013-08-10 18:49:00,
2013-08-10 13:55:00,77.2,56.5,30.08,NW,315,7.0,16.0,49,0.00,,,0.00,meteohub,2013-08-10 18:55:00,
2013-08-10 14:00:00,77.7,56.5,30.08,NW,315,8.0,16.0,48,0.00,,,0.00,meteohub,2013-08-10 19:00:00,
2013-08-10 14:05:00,76.5,57.0,30.08,NW,315,14.0,16.0,51,0.00,,,0.00,meteohub,2013-08-10 19:05:00,
2013-08-10 14:10:00,76.5,57.6,30.08,North,0,9.0,15.0,52,0.00,,,0.00,meteohub,2013-08-10 19:10:00,
2013-08-10 14:15:00,77.0,56.3,30.08,NW,315,10.0,15.0,49,0.00,,,0.00,meteohub,2013-08-10 19:15:00,
2013-08-10 14:20:00,77.4,57.7,30.08,NNW,338,11.0,14.0,51,0.00,,,0.00,meteohub,2013-08-10 19:20:00,
2013-08-10 14:25:00,77.0,54.7,30.08,NW,315,8.0,14.0,46,0.00,,,0.00,meteohub,2013-08-10 19:25:00,
2013-08-10 14:30:00,75.9,55.9,30.08,North,0,8.0,14.0,50,0.00,,,0.00,meteohub,2013-08-10 19:30:00,
2013-08-10 14:35:00,75.6,57.2,30.08,NW,315,8.0,14.0,53,0.00,,,0.00,meteohub,2013-08-10 19:35:00,
2013-08-10 14:40:00,75.7,56.8,30.08,NW,315,9.0,14.0,52,0.00,,,0.00,meteohub,2013-08-10 19:40:00,
2013-08-10 14:45:00,74.8,56.5,30.08,North,0,6.0,14.0,53,0.00,,,0.00,meteohub,2013-08-10 19:45:00,
2013-08-10 14:50:00,75.0,57.2,30.08,NW,315,10.0,13.0,54,0.00,,,0.00,meteohub,2013-08-10 19:50:00,
2013-08-10 14:55:00,75.2,54.7,30.08,NW,315,11.0,13.0,49,0.00,,,0.00,meteohub,2013-08-10 19:55:00,
2013-08-10 15:00:00,76.1,56.7,30.07,North,0,8.0,11.0,51,0.00,,,0.00,meteohub,2013-08-10 20:00:00,
2013-08-10 15:05:00,77.4,56.7,30.07,North,0,15.0,15.0,49,0.00,,,0.00,meteohub,2013-08-10 20:05:00,
2013-08-10 15:10:00,77.7,56.5,30.07,North,0,11.0,15.0,48,0.00,,,0.00,meteohub,2013-08-10 20:10:00,
2013-08-10 15:15:00,77.7,55.9,30.07,West,270,9.0,18.0,47,0.00,,,0.00,meteohub,2013-08-10 20:15:00,
2013-08-10 15:20:00,78.4,57.2,30.06,North,0,10.0,18.0,48,0.00,,,0.00,meteohub,2013-08-10 20:20:00,
2013-08-10 15:25:00,77.9,56.7,30.07,NW,315,5.0,18.0,48,0.00,,,0.00,meteohub,2013-08-10 20:25:00,
2013-08-10 15:31:00,78.3,56.3,30.06,WNW,293,12.0,12.0,47,0.00,,,0.00,meteohub,2013-08-10 20:31:00,
2013-08-10 15:36:00,77.7,55.2,30.06,NW,315,12.0,12.0,46,0.00,,,0.00,meteohub,2013-08-10 20:36:00,
2013-08-10 15:41:00,77.5,55.8,30.06,West,270,8.0,13.0,47,0.00,,,0.00,meteohub,2013-08-10 20:41:00,
2013-08-10 15:46:00,77.2,54.9,30.06,NW,315,15.0,15.0,46,0.00,,,0.00,meteohub,2013-08-10 20:46:00,
2013-08-10 15:51:00,76.8,57.4,30.06,NW,315,8.0,15.0,51,0.00,,,0.00,meteohub,2013-08-10 20:51:00,
2013-08-10 15:56:00,76.3,56.3,30.06,NW,315,10.0,15.0,50,0.00,,,0.00,meteohub,2013-08-10 20:56:00,
2013-08-10 16:01:00,75.0,55.0,30.06,NW,315,11.0,15.0,50,0.00,,,0.00,meteohub,2013-08-10 21:01:00,
2013-08-10 16:06:00,73.8,54.5,30.06,NW,315,11.0,15.0,51,0.00,,,0.00,meteohub,2013-08-10 21:06:00,
2013-08-10 16:11:00,74.5,56.3,30.06,NW,315,4.0,15.0,53,0.00,,,0.00,meteohub,2013-08-10 21:11:00,
2013-08-10 16:16:00,75.9,58.1,30.06,North,0,5.0,12.0,54,0.00,,,0.00,meteohub,2013-08-10 21:16:00,
2013-08-10 16:21:00,76.5,56.5,30.05,North,0,9.0,12.0,50,0.00,,,0.00,meteohub,2013-08-10 21:21:00,
2013-08-10 16:26:00,76.5,56.5,30.05,North,0,8.0,11.0,50,0.00,,,0.00,meteohub,2013-08-10 21:26:00,
2013-08-10 16:31:00,76.8,56.8,30.05,WSW,248,6.0,11.0,50,0.00,,,0.00,meteohub,2013-08-10 21:31:00,
2013-08-10 16:36:00,77.4,57.7,30.05,North,0,4.0,11.0,51,0.00,,,0.00,meteohub,2013-08-10 21:36:00,
2013-08-10 16:41:00,77.4,55.0,30.06,West,270,10.0,12.0,46,0.00,,,0.00,meteohub,2013-08-10 21:41:00,
2013-08-10 16:46:00,77.0,55.2,30.05,NW,315,15.0,15.0,47,0.00,,,0.00,meteohub,2013-08-10 21:46:00,
2013-08-10 16:51:00,77.2,57.0,30.05,NW,315,2.0,15.0,50,0.00,,,0.00,meteohub,2013-08-10 21:51:00,
2013-08-10 16:56:00,77.4,56.7,30.05,North,0,9.0,15.0,49,0.00,,,0.00,meteohub,2013-08-10 21:56:00,
2013-08-10 17:01:00,76.5,56.5,30.05,NW,315,7.0,15.0,50,0.00,,,0.00,meteohub,2013-08-10 22:01:00,
2013-08-10 17:07:00,75.9,56.5,30.05,NW,315,15.0,15.0,51,0.00,,,0.00,meteohub,2013-08-10 22:07:00,
2013-08-10 17:12:00,75.0,56.7,30.06,North,0,8.0,15.0,53,0.00,,,0.00,meteohub,2013-08-10 22:12:00,
2013-08-10 17:17:00,75.0,57.2,30.05,NE,45,8.0,15.0,54,0.00,,,0.00,meteohub,2013-08-10 22:17:00,
2013-08-10 17:22:00,75.4,57.0,30.05,North,0,6.0,15.0,53,0.00,,,0.00,meteohub,2013-08-10 22:22:00,
2013-08-10 17:27:00,75.7,56.8,30.05,NW,315,10.0,12.0,52,0.00,,,0.00,meteohub,2013-08-10 22:27:00,
2013-08-10 17:32:00,75.9,56.5,30.05,North,0,6.0,11.0,51,0.00,,,0.00,meteohub,2013-08-10 22:32:00,
2013-08-10 17:37:00,75.9,57.0,30.05,North,0,5.0,11.0,52,0.00,,,0.00,meteohub,2013-08-10 22:37:00,
2013-08-10 17:42:00,76.1,56.7,30.05,North,0,11.0,11.0,51,0.00,,,0.00,meteohub,2013-08-10 22:42:00,
2013-08-10 17:47:00,75.9,55.4,30.05,North,0,8.0,11.0,49,0.00,,,0.00,meteohub,2013-08-10 22:47:00,
2013-08-10 17:52:00,75.6,55.0,30.05,North,0,6.0,11.0,49,0.00,,,0.00,meteohub,2013-08-10 22:52:00,
2013-08-10 17:57:00,75.9,56.5,30.05,North,0,8.0,11.0,51,0.00,,,0.00,meteohub,2013-08-10 22:57:00,
2013-08-10 18:02:00,75.6,56.1,30.05,NW,315,9.0,11.0,51,0.00,,,0.00,meteohub,2013-08-10 23:02:00,
2013-08-10 18:07:00,75.6,56.7,30.05,NW,315,5.0,10.0,52,0.00,,,0.00,meteohub,2013-08-10 23:07:00,
2013-08-10 18:12:00,75.4,55.9,30.06,North,0,4.0,10.0,51,0.00,,,0.00,meteohub,2013-08-10 23:12:00,
2013-08-10 18:17:00,75.4,57.0,30.06,North,0,10.0,11.0,53,0.00,,,0.00,meteohub,2013-08-10 23:17:00,
2013-08-10 18:22:00,75.0,57.2,30.05,NW,315,7.0,11.0,54,0.00,,,0.00,meteohub,2013-08-10 23:22:00,
2013-08-10 18:27:00,75.2,57.4,30.05,NW,315,5.0,11.0,54,0.00,,,0.00,meteohub,2013-08-10 23:27:00,
2013-08-10 18:32:00,75.0,56.7,30.05,NW,315,8.0,10.0,53,0.00,,,0.00,meteohub,2013-08-10 23:32:00,
2013-08-10 18:37:00,74.8,56.1,30.05,NW,315,6.0,10.0,52,0.00,,,0.00,meteohub,2013-08-10 23:37:00,
2013-08-10 18:42:00,74.7,56.5,30.05,WNW,293,8.0,10.0,53,0.00,,,0.00,meteohub,2013-08-10 23:42:00,
2013-08-10 18:47:00,74.3,55.6,30.05,NW,315,4.0,10.0,52,0.00,,,0.00,meteohub,2013-08-10 23:47:00,
2013-08-10 18:52:00,74.1,56.5,30.05,North,0,9.0,9.0,54,0.00,,,0.00,meteohub,2013-08-10 23:52:00,
2013-08-10 18:54:00,74.1,56.5,30.05,NW,315,5.0,9.0,54,0.00,,,0.00,meteohub,2013-08-10 23:54:00,
2013-08-10 18:59:00,74.1,56.8,30.05,North,0,3.0,9.0,55,0.00,,,0.00,meteohub,2013-08-10 23:59:00,
2013-08-10 19:04:00,73.9,56.8,30.05,West,270,2.0,9.0,55,0.00,,,0.00,meteohub,2013-08-11 00:04:00,
2013-08-10 19:09:00,73.6,56.8,30.05,North,0,3.0,9.0,56,0.00,,,0.00,meteohub,2013-08-11 00:09:00,
2013-08-10 19:14:00,73.2,57.0,30.05,NW,315,6.0,8.0,57,0.00,,,0.00,meteohub,2013-08-11 00:14:00,
2013-08-10 19:19:00,73.0,56.8,30.05,NW,315,2.0,8.0,57,0.00,,,0.00,meteohub,2013-08-11 00:19:00,
2013-08-10 19:24:00,72.9,57.2,30.05,North,0,5.0,8.0,58,0.00,,,0.00,meteohub,2013-08-11 00:24:00,
2013-08-10 19:29:00,72.5,56.8,30.06,North,0,6.0,7.0,58,0.00,,,0.00,meteohub,2013-08-11 00:29:00,
2013-08-10 19:34:00,72.3,56.7,30.05,NW,315,4.0,6.0,58,0.00,,,0.00,meteohub,2013-08-11 00:34:00,
2013-08-10 19:39:00,72.0,56.3,30.05,NW,315,4.0,7.0,58,0.00,,,0.00,meteohub,2013-08-11 00:39:00,
2013-08-10 19:44:00,71.6,56.5,30.05,NW,315,3.0,7.0,59,0.00,,,0.00,meteohub,2013-08-11 00:44:00,
2013-08-10 19:49:00,71.1,56.8,30.06,North,0,2.0,7.0,61,0.00,,,0.00,meteohub,2013-08-11 00:49:00,
2013-08-10 19:54:00,70.7,57.0,30.06,NW,315,2.0,5.0,62,0.00,,,0.00,meteohub,2013-08-11 00:54:00,
2013-08-10 19:59:00,70.2,56.5,30.06,North,0,2.0,7.0,62,0.00,,,0.00,meteohub,2013-08-11 00:59:00,
2013-08-10 20:04:00,70.0,56.8,30.06,North,0,2.0,7.0,63,0.00,,,0.00,meteohub,2013-08-11 01:04:00,
2013-08-10 20:09:00,69.6,56.8,30.06,NW,315,1.0,7.0,64,0.00,,,0.00,meteohub,2013-08-11 01:09:00,
2013-08-10 20:14:00,69.4,56.7,30.06,NW,315,2.0,4.0,64,0.00,,,0.00,meteohub,2013-08-11 01:14:00,
2013-08-10 20:20:00,69.3,57.0,30.06,North,0,3.0,4.0,65,0.00,,,0.00,meteohub,2013-08-11 01:20:00,
2013-08-10 20:25:00,68.9,56.7,30.06,North,0,2.0,5.0,65,0.00,,,0.00,meteohub,2013-08-11 01:25:00,
2013-08-10 20:30:00,68.9,56.7,30.06,NW,315,4.0,5.0,65,0.00,,,0.00,meteohub,2013-08-11 01:30:00,
2013-08-10 20:35:00,68.7,56.8,30.06,NW,315,2.0,4.0,66,0.00,,,0.00,meteohub,2013-08-11 01:35:00,
2013-08-10 20:40:00,68.5,56.7,30.06,North,0,2.0,4.0,66,0.00,,,0.00,meteohub,2013-08-11 01:40:00,
2013-08-10 20:45:00,68.5,56.7,30.06,North,0,4.0,4.0,66,0.00,,,0.00,meteohub,2013-08-11 01:45:00,
2013-08-10 20:50:00,68.5,56.7,30.07,North,0,0.0,4.0,66,0.00,,,0.00,meteohub,2013-08-11 01:50:00,
2013-08-10 20:55:00,68.4,56.5,30.07,North,0,0.0,4.0,66,0.00,,,0.00,meteohub,2013-08-11 01:55:00,
2013-08-10 21:00:00,68.4,56.5,30.07,West,270,2.0,4.0,66,0.00,,,0.00,meteohub,2013-08-11 02:00:00,
2013-08-10 21:05:00,68.4,56.5,30.07,North,0,1.0,3.0,66,0.00,,,0.00,meteohub,2013-08-11 02:05:00,
2013-08-10 21:10:00,68.2,56.3,30.07,North,0,0.0,2.0,66,0.00,,,0.00,meteohub,2013-08-11 02:10:00,
2013-08-10 21:15:00,68.0,56.3,30.07,North,0,1.0,2.0,66,0.00,,,0.00,meteohub,2013-08-11 02:15:00,
2013-08-10 21:20:00,68.0,56.7,30.07,NE,45,2.0,2.0,67,0.00,,,0.00,meteohub,2013-08-11 02:20:00,
2013-08-10 21:25:00,67.6,56.7,30.07,NE,45,0.0,2.0,68,0.00,,,0.00,meteohub,2013-08-11 02:25:00,
2013-08-10 21:30:00,67.6,56.7,30.07,NE,45,0.0,2.0,68,0.00,,,0.00,meteohub,2013-08-11 02:30:00,
2013-08-10 21:35:00,67.6,56.7,30.07,NE,45,2.0,2.0,68,0.00,,,0.00,meteohub,2013-08-11 02:35:00,
2013-08-10 21:40:00,67.8,56.8,30.07,NE,45,2.0,3.0,68,0.00,,,0.00,meteohub,2013-08-11 02:40:00,
2013-08-10 21:45:00,67.8,56.5,30.07,NE,45,2.0,4.0,67,0.00,,,0.00,meteohub,2013-08-11 02:45:00,
2013-08-10 21:50:00,67.8,56.5,30.07,NE,45,4.0,4.0,67,0.00,,,0.00,meteohub,2013-08-11 02:50:00,
2013-08-10 21:56:00,68.0,56.3,30.07,NE,45,4.0,5.0,66,0.00,,,0.00,meteohub,2013-08-11 02:56:00,
2013-08-10 22:01:00,68.2,56.3,30.06,NE,45,4.0,5.0,66,0.00,,,0.00,meteohub,2013-08-11 03:01:00,
2013-08-10 22:06:00,68.4,56.1,30.06,NE,45,3.0,5.0,65,0.00,,,0.00,meteohub,2013-08-11 03:06:00,
2013-08-10 22:11:00,68.4,56.1,30.06,NE,45,4.0,4.0,65,0.00,,,0.00,meteohub,2013-08-11 03:11:00,
2013-08-10 22:16:00,68.5,56.3,30.06,NE,45,4.0,5.0,65,0.00,,,0.00,meteohub,2013-08-11 03:16:00,
2013-08-10 22:22:00,68.5,56.3,30.06,NE,45,2.0,5.0,65,0.00,,,0.00,meteohub,2013-08-11 03:22:00,
2013-08-10 22:27:00,68.4,56.1,30.06,NE,45,3.0,5.0,65,0.00,,,0.00,meteohub,2013-08-11 03:27:00,
2013-08-10 22:32:00,68.4,56.1,30.06,NE,45,3.0,4.0,65,0.00,,,0.00,meteohub,2013-08-11 03:32:00,
2013-08-10 22:38:00,68.4,56.1,30.06,East,90,2.0,3.0,65,0.00,,,0.00,meteohub,2013-08-11 03:38:00,
2013-08-10 22:43:00,68.0,55.8,30.06,East,90,0.0,3.0,65,0.00,,,0.00,meteohub,2013-08-11 03:43:00,
2013-08-10 22:48:00,68.0,55.8,30.06,NE,45,0.0,3.0,65,0.00,,,0.00,meteohub,2013-08-11 03:48:00,
2013-08-10 22:53:00,67.6,55.9,30.06,NE,45,0.0,2.0,66,0.00,,,0.00,meteohub,2013-08-11 03:53:00,
2013-08-10 22:58:00,67.5,56.1,30.06,NE,45,0.0,0.0,67,0.00,,,0.00,meteohub,2013-08-11 03:58:00,
2013-08-10 23:01:00,67.5,56.1,30.05,NE,45,0.0,0.0,67,0.00,,,0.00,meteohub,2013-08-11 04:01:00,
2013-08-10 23:02:00,67.5,56.1,30.06,NE,45,0.0,0.0,67,0.00,,,0.00,meteohub,2013-08-11 04:02:00,
2013-08-10 23:04:00,67.5,56.1,30.06,NE,45,0.0,0.0,67,0.00,,,0.00,meteohub,2013-08-11 04:04:00,
2013-08-10 23:09:00,67.1,55.8,30.06,NE,45,0.0,0.0,67,0.00,,,0.00,meteohub,2013-08-11 04:09:00,
2013-08-10 23:10:00,67.1,55.8,30.06,NE,45,0.0,0.0,67,0.00,,,0.00,meteohub,2013-08-11 04:10:00,
2013-08-10 23:15:00,67.1,55.8,30.05,East,90,0.0,0.0,67,0.00,,,0.00,meteohub,2013-08-11 04:15:00,
2013-08-10 23:20:00,67.3,55.9,30.06,East,90,0.0,0.0,67,0.00,,,0.00,meteohub,2013-08-11 04:20:00,
2013-08-10 23:25:00,67.3,55.9,30.06,East,90,0.0,0.0,67,0.00,,,0.00,meteohub,2013-08-11 04:25:00,
2013-08-10 23:30:00,67.1,55.8,30.06,East,90,0.0,0.0,67,0.00,,,0.00,meteohub,2013-08-11 04:30:00,
2013-08-10 23:35:00,67.1,55.8,30.06,SE,135,0.0,2.0,67,0.00,,,0.00,meteohub,2013-08-11 04:35:00,
2013-08-10 23:40:00,67.1,55.8,30.06,SE,135,0.0,2.0,67,0.00,,,0.00,meteohub,2013-08-11 04:40:00,
2013-08-10 23:45:00,67.1,55.8,30.06,SE,135,0.0,2.0,67,0.00,,,0.00,meteohub,2013-08-11 04:45:00,
2013-08-10 23:50:00,67.1,55.8,30.06,East,90,2.0,2.0,67,0.00,,,0.00,meteohub,2013-08-11 04:50:00,
2013-08-10 23:55:00,67.3,55.9,30.06,East,90,2.0,2.0,67,0.00,,,0.00,meteohub,2013-08-11 04:55:00,